Tracking 19145 objects as of 25-Apr-2018
HD Live streaming from Space Station
objects crossing your sky now

FENGYUN 1C DEB

Track FENGYUN 1C DEB now!
10-day predictions


NORAD ID: 37715
Int'l Code: 1999-025EMG
Perigee: 842.2 km
Apogee: 1,016.1 km
Inclination: 99.2 °
Period: 103.5 minutes
Semi major axis: 7300 km
RCS: 0.001 m2 (small)
Launch date: May 10, 1999
Source: People's Republic of China (PRC)
Launch site: Taiyaun Space Center, China (TSC)

Note: This is SATELLITE DEBRIS
aabbcc
Your satellite tracking list
Your tracking list is empty




NASA's NSSDC Master Catalog

Two Line Element Set (TLE):
1 37715U 99025EMG 18114.30051017 +.00000211 +00000-0 +18855-3 0  9994
2 37715 099.1801 146.8710 0119139 158.5214 263.3480 13.91890398189702
Source of the keplerian elements: AFSPC